Main page
METAR-TAF:

METAR-TAF

Airports :

Copper Harbor, Michigan, United States

latitude: 47-28-01N, longitude: 087-52-30W, elevation: 190 m

Current weather observation

The report was made 1 hour and 9 minutes ago, at 16:51 UTC
Wind 16 kt from the North/Northwest with gusts up to 25 kt
Temperature 10°C
Humidity 57%
Pressure 1009 hPa

METAR: KP59 231651Z AUTO 34016G25KT 10/02 A2981 RMK AO1 PK WND 36035/1621 SLP097 T01000022

Time: 14:00 (18:00 UTC)


TAF: missing

Weather observations and forecasts of more than 4000 airports (METAR and TAF reports).

The available stations are represented by yellow and red dots on the map.

Hover mouse over dot to see the name of the station.

Then click to see weather observations and forecasts.

To change the map : click on the green buttons with a black cross to zoom in, on the green button with a dash to zoom out, or on the green arrows for adjacent maps.


METAR-TAF: